Flag for U.S.A. Weather past 2 weeks in Oklahoma City, Oklahoma, U.S.A.

Now
66 °F

Passing clouds.


Feels Like: 66 °F
Forecast: 59 / 76 °F
Wind: 21 mph from South

Location: Will Rogers World Airport


UV Index: 5 (Moderate)

Visibility: 10 mi


Pressure: 29.63 "Hg

Humidity: 83%

Dew point: 61 °F

Location of Oklahoma CityLocation

Historic Weather in Oklahoma City

°F

Oklahoma City temperature yesterday

Maximum temperature yesterday: 86 °F (at 2:52 PM)
Minimum temperature yesterday: 49 °F (at 4:52 AM)
Average temperature yesterday: 70 °F

Past Weeks' High & Low Weather Summary

 TemperatureHumidityPressure
High86 °F (Apr 10, 2:52 PM)93% (Apr 21, 4:52 AM)30.28 "Hg (Apr 21, 4:52 AM)
Low30 °F (Apr 15, 2:52 AM)12% (Apr 15, 2:52 PM)29.39 "Hg (Apr 13, 2:52 PM)
Average62 °F54%29.95 "Hg
* Reported Apr 9 5:52 AM — Apr 24 5:52 AM, Oklahoma City, Weather by CustomWeather, © 2014

Note: Actual official high and low records may vary slightly from our data, if they occured in-between our weather recording intervals... More about our weather records

Advertising

Historic Weather Conditions — Data for Previous 24 hours

 ConditionsComfort  
Time TempWeatherWind HumidityBarometerVisibility
5:52 AM
Apr 24
65 °FPartly cloudy.20 mph85%29.59 "Hg10 mi
4:52 AM65 °FPassing clouds.20 mph81%29.59 "Hg10 mi
3:52 AM67 °FPassing clouds.16 mph76%29.61 "Hg10 mi
2:52 AM68 °FPassing clouds.20 mph76%29.61 "Hg10 mi
1:52 AM68 °FMostly cloudy.18 mph76%29.60 "Hg10 mi
12:52 AM68 °FThunderstorms. Overcast.21 mph78%29.67 "Hg10 mi
11:52 PM
Apr 23
68 °FThunderstorms. Mostly cloudy.20 mph76%29.56 "Hg10 mi
10:52 PM70 °FThunderstorms. Overcast.10 mph73%29.73 "Hg10 mi
9:52 PM73 °FLight rain. Overcast.No wind64%29.73 "Hg10 mi
8:52 PM76 °FLight rain. Mostly cloudy.21 mph52%29.68 "Hg10 mi
7:52 PM78 °FMostly cloudy.18 mph43%29.66 "Hg10 mi
6:52 PM79 °FCloudy.20 mph41%29.65 "Hg10 mi
5:52 PM81 °FBroken clouds.21 mph38%29.67 "Hg10 mi
4:52 PM84 °FPartly sunny.23 mph36%29.69 "Hg10 mi
3:52 PM86 °FBroken clouds.20 mph31%29.72 "Hg10 mi
2:52 PM86 °FPartly sunny.22 mph32%29.75 "Hg10 mi
1:52 PM84 °FPartly sunny.23 mph37%29.76 "Hg10 mi
12:52 PM83 °FScattered clouds.25 mph40%29.79 "Hg10 mi
11:52 AM80 °FScattered clouds.25 mph44%29.82 "Hg10 mi
10:52 AM76 °FScattered clouds.22 mph47%29.84 "Hg10 mi
9:52 AM72 °FScattered clouds.24 mph52%29.86 "Hg10 mi
8:52 AM66 °FPassing clouds.15 mph54%29.88 "Hg10 mi
7:52 AM58 °FPassing clouds.10 mph60%29.87 "Hg10 mi
Weather by CustomWeather, © 2014

See weather overview